Lapse_Rate
4.7 5.0 5.3 5.9 6.6 7.4 8.0 8.8 9.0 8.2 8.4 7.5 6.9 7.2 7.3 7.6 8.2 9.1 9.4 9.4 9.4 9.4 9.4 9.4 9.3 6.5 4.8 4.8 4.9 5.2 2.1 0.0
4.1 4.3 4.8 5.2 5.4 6.9 7.4 8.2 7.5 7.3 7.5 7.1 6.8 6.0 6.6 6.6 6.8 7.4 7.8 8.3 8.4 6.8 7.5 7.7 8.3 6.6 5.1 4.4 4.4 3.4 2.0 1.1
3.6 3.8 4.2 5.1 5.3 5.2 5.6 6.9 6.0 6.1 5.9 6.4 5.0 4.9 5.5 4.9 6.0 6.9 6.5 6.4 5.9 5.9 5.9 6.1 6.0 5.3 5.2 4.7 4.2 2.3 1.7 1.7
2.6 3.2 3.7 4.7 5.2 4.7 5.5 5.3 4.7 5.3 5.3 5.3 4.9 4.6 5.6 5.7 5.8 6.7 6.0 5.9 5.0 5.1 5.0 5.4 4.9 4.1 4.0 4.5 3.4 2.7 2.2 1.6
2.6 3.4 3.9 3.8 3.5 3.9 4.6 4.9 4.6 5.3 5.3 4.7 4.5 4.5 5.0 5.7 5.2 4.6 3.7 3.9 2.8 3.2 3.4 4.2 4.8 5.3 5.1 4.6 4.5 3.8 3.3 1.9
2.5 3.6 3.8 3.4 3.7 3.4 4.3 4.2 4.4 4.8 4.6 4.5 4.2 4.2 4.8 4.7 4.2 3.7 3.3 3.1 3.0 3.3 3.6 4.0 4.4 5.1 6.0 5.8 5.3 4.9 3.9 3.3
2.7 3.2 2.8 3.0 2.9 3.5 3.7 3.6 4.1 4.6 4.3 4.7 4.8 4.8 4.3 4.1 3.4 3.1 3.2 3.3 3.7 4.0 4.6 4.8 4.8 4.8 5.3 5.8 5.5 5.0 4.6 4.4
2.5 2.5 2.7 3.5 2.9 3.3 3.1 4.4 4.2 4.1 4.5 5.1 5.7 5.3 4.3 3.7 2.9 3.2 3.1 3.8 4.2 4.5 4.7 5.0 5.0 5.3 5.3 5.2 4.9 4.6 4.5 4.1
2.4 1.9 2.7 2.6 2.9 3.4 3.5 4.0 4.0 3.7 4.9 5.6 5.9 5.7 4.5 3.5 2.8 3.2 3.7 4.1 4.3 4.7 5.3 6.3 6.4 5.7 5.1 5.4 6.1 6.1 5.6 4.7
3.3 3.8 2.0 2.4 2.8 3.2 3.4 3.8 3.8 4.5 5.3 5.7 5.7 5.4 4.8 3.5 3.1 3.3 4.0 4.3 4.7 5.6 6.2 6.9 7.1 7.3 7.6 8.3 8.6 7.4 6.5 6.4
1.7 1.6 1.7 2.2 3.1 3.2 3.2 3.9 4.0 5.1 5.7 5.7 5.3 4.8 4.2 3.0 3.1 3.8 4.3 4.7 5.7 6.4 7.3 7.9 7.4 7.7 7.8 7.3 8.4 7.3 5.9 7.2
1.3 1.6 1.6 2.5 2.8 2.8 2.9 3.8 4.5 5.4 5.5 5.7 5.1 4.2 3.6 3.1 3.3 4.1 4.7 5.7 6.8 7.8 7.9 7.5 7.6 7.7 7.9 8.2 6.8 6.5 6.9 6.9
1.8 2.1 2.0 2.4 2.2 2.1 2.0 3.4 4.1 4.6 5.7 5.6 4.6 3.9 3.4 3.3 3.9 4.6 5.3 6.2 7.1 7.6 7.0 6.9 7.2 8.0 7.2 7.9 6.5 6.0 7.1 6.8
1.5 1.7 1.7 1.9 2.2 1.9 2.6 3.6 4.7 5.3 5.7 5.1 4.4 3.7 3.4 4.0 4.2 4.6 6.0 7.0 6.8 6.9 7.5 7.0 7.5 7.2 7.3 6.9 7.0 6.4 6.9 5.9
1.5 1.4 1.6 1.9 2.6 2.4 2.4 3.6 4.6 4.3 3.9 4.0 3.7 3.5 3.4 4.0 4.7 4.9 6.6 7.0 6.3 6.8 7.2 7.0 6.8 6.9 7.2 7.1 7.0 6.9 6.8 6.2
1.1 1.6 1.9 2.1 2.6 1.2 2.1 3.6 4.5 4.5 4.2 3.4 3.5 3.5 3.6 4.2 4.6 4.8 6.6 5.9 6.3 6.6 7.2 7.0 6.7 6.7 7.0 7.1 6.8 6.9 7.1 6.7
0.8 1.6 1.6 1.9 1.7 1.4 2.3 3.9 4.1 4.2 3.7 2.9 3.3 3.6 3.6 3.7 4.3 4.6 5.6 5.5 5.9 6.5 6.9 7.1 7.0 6.9 6.9 6.7 6.9 6.4 6.4 7.1
0.8 1.5 1.2 1.8 1.8 2.1 2.8 4.0 4.6 3.9 3.1 3.0 3.5 3.6 3.7 4.2 4.3 5.2 5.7 5.5 5.6 6.3 6.8 7.0 6.6 6.5 6.5 6.4 6.6 6.8 6.8 6.8
1.2 1.3 1.3 2.0 2.3 2.1 3.6 4.6 4.5 4.2 4.0 3.5 3.3 3.8 4.3 4.4 4.8 5.3 5.8 5.9 6.0 7.2 7.2 7.0 7.0 6.4 5.9 6.4 5.7 5.8 5.8 6.0
1.3 1.6 1.6 2.1 2.3 2.6 4.1 4.6 4.2 4.3 4.4 3.9 3.7 3.5 3.8 4.7 4.7 5.7 6.4 6.4 6.6 6.9 7.0 7.6 6.4 5.7 5.2 5.4 5.3 5.3 5.5 5.6
Wind_Speed
8 11 12 12 14 12 12 14 17 14 13 14 17 18 18 22 23 23 22 23 21 23 23 23 24 24 24 23 22 20 15 15
5 9 10 11 13 13 12 14 16 12 12 14 15 15 17 21 23 23 25 25 23 23 23 23 22 21 23 24 23 19 12 14
4 6 9 8 11 12 10 12 15 10 13 15 12 14 15 17 23 24 25 25 24 22 22 22 21 19 21 23 23 12 12 11
1 4 7 7 10 12 11 15 12 10 14 14 12 15 17 20 20 21 22 21 21 20 20 20 18 15 14 19 14 14 13 11
2 3 5 7 10 12 13 14 9 11 12 13 13 15 19 16 15 13 13 18 14 15 14 12 13 14 14 15 16 15 13 13
3 3 4 8 12 12 12 12 9 10 11 13 14 13 10 11 10 13 12 13 14 13 12 15 15 15 15 15 16 15 14 15
3 3 4 10 12 12 13 11 12 10 11 14 16 10 7 10 11 11 11 13 11 11 11 12 12 14 15 14 13 15 17 15
4 3 7 13 9 10 10 12 12 13 13 12 12 10 9 8 8 10 10 12 13 12 10 7 8 11 10 14 13 15 17 17
6 5 9 11 8 9 11 13 13 13 12 12 11 12 11 11 8 7 11 14 13 13 13 13 11 10 12 13 12 15 14 16
4 6 8 8 8 9 11 14 14 12 11 11 11 13 10 11 8 8 15 14 13 9 9 8 9 10 11 11 11 12 13 13
6 6 6 6 8 9 12 14 11 10 9 8 11 12 12 11 10 12 15 12 9 7 9 11 9 9 10 11 11 11 11 10
7 5 6 5 5 6 9 10 9 9 9 9 11 11 15 12 12 13 14 9 9 10 11 10 9 9 10 11 12 9 9 8
6 6 3 3 3 2 3 3 2 2 8 11 11 13 14 13 12 12 14 10 10 12 9 10 8 9 8 12 7 7 4 6
7 6 6 3 2 1 2 1 1 1 7 10 11 14 16 16 13 8 12 10 12 10 11 9 5 8 7 9 8 7 4 12
7 6 6 4 4 3 4 4 3 3 3 6 13 15 17 16 15 12 12 8 8 10 10 11 9 9 8 4 4 4 11 4
7 6 6 5 3 5 5 2 2 2 3 3 9 15 15 16 15 14 13 9 10 9 9 9 10 10 9 4 6 7 3 6
7 6 6 4 5 6 4 3 2 2 3 6 7 12 15 15 17 15 11 8 9 10 10 10 8 8 8 9 8 7 6 4
6 6 5 5 6 6 6 4 2 3 4 5 6 6 9 16 18 14 13 10 9 9 10 10 9 9 9 8 7 4 5 5
6 6 5 5 5 6 6 3 3 3 4 4 6 7 7 10 14 11 9 13 12 12 11 10 10 9 11 9 8 7 6 7
7 6 5 5 5 7 4 4 3 3 3 3 4 4 5 14 14 15 15 16 15 14 8 9 10 9 12 11 9 8 7 7
Wind_Direction
67 60 62 53 25 35 27 22 14 15 21 27 22 19 18 11 8 3 3 354 346 342 335 333 331 330 332 334 333 336 342 322
63 51 61 56 36 32 23 18 20 28 33 29 25 24 18 13 6 360 354 349 348 341 337 334 335 334 330 330 329 333 314 313
52 41 52 50 34 26 25 16 23 54 47 28 27 21 13 14 3 358 353 347 347 342 341 338 337 333 325 326 327 314 309 306
64 39 51 47 35 26 24 24 38 61 42 28 27 26 17 12 2 353 348 343 342 339 336 337 332 320 310 321 310 306 304 301
185 63 53 42 35 28 25 31 53 54 38 35 30 25 17 355 340 336 337 343 333 328 322 321 315 314 310 308 304 304 299 295
184 71 57 51 53 43 36 43 55 47 44 41 33 22 352 332 327 331 336 334 326 324 320 320 318 315 305 303 300 300 297 292
147 79 64 67 59 48 45 46 53 47 63 45 34 12 329 330 328 328 325 325 321 318 315 319 317 317 313 303 302 300 297 290
139 81 76 77 59 55 53 46 48 63 54 40 19 356 341 336 319 326 318 326 319 317 319 316 318 316 312 312 305 300 294 289
143 121 90 83 65 64 59 48 57 64 51 32 5 345 341 330 312 319 332 328 323 327 334 336 328 323 318 317 311 304 297 289
146 109 94 82 68 65 58 50 62 60 44 21 351 340 333 333 338 336 335 334 337 341 338 326 320 323 317 309 306 301 288 282
136 105 100 87 72 64 60 54 65 56 36 1 343 338 344 348 347 341 340 341 345 334 332 332 324 314 307 309 305 297 287 282
121 102 104 87 78 51 49 48 65 56 19 356 342 345 357 358 352 343 345 347 339 339 331 325 314 315 310 302 303 289 283 279
113 105 81 70 44 13 39 24 21 7 357 345 344 351 355 358 356 347 348 344 334 340 325 320 322 326 314 325 298 282 318 318
106 98 85 67 52 21 61 25 23 350 315 328 348 358 1 2 354 346 348 343 338 337 330 332 321 335 334 309 326 323 332 315
115 106 97 80 62 56 39 25 2 334 311 359 353 355 358 356 347 348 347 346 335 331 333 335 329 334 335 319 322 324 321 297
109 105 108 83 57 64 65 44 348 289 303 307 341 356 356 353 343 346 345 335 339 331 335 326 323 334 329 294 297 296 305 319
110 105 93 84 68 70 68 42 299 302 318 346 356 360 356 347 346 342 339 332 331 335 327 330 338 327 320 316 319 302 283 293
114 115 96 75 66 63 61 41 348 359 353 358 358 356 356 355 349 342 331 329 332 327 323 336 330 327 325 315 319 306 302 299
131 113 98 81 70 59 42 23 18 13 352 349 357 359 358 353 344 338 332 330 332 337 334 334 340 335 326 319 317 304 296 294
121 121 117 84 69 53 21 12 18 351 336 344 352 347 335 348 340 337 333 336 339 337 335 346 343 334 325 321 317 307 299 292